Location: Roanoke
(37.2710°N, 79.9420°W)
Time: 18:31:14
(UTC-04:00)

Daily predictions for brighter satellites

Satellite Brightness Start Highest point End
(mag) Time Altitude Azimuth Time Altitude Azimuth Time Altitude Azimuth
Cosmos 1980 4.2 21:12:45 10° NNW 21:18:22 61° WSW 21:23:55 10° S
Spot 1 4.4 21:15:43 10° SSE 21:19:38 47° ENE 21:23:41 10° N
Cosmos 1727 Rocket 4.0 21:13:56 10° S 21:20:13 76° E 21:26:34 10° N
Aureole 2 Rocket 4.3 21:22:16 10° NW 21:25:57 35° WSW 21:29:23 10° SSW
Cosmos 2237 Rocket 2.9 21:22:40 10° NNW 21:28:08 54° WSW 21:33:35 10° S
Cosmos 1939 Rocket 2.8 21:25:56 10° SSE 21:29:55 80° ENE 21:33:59 10° N
Cosmos 1340 Rocket 2.9 21:27:42 10° S 21:31:43 86° WNW 21:35:48 10° N
SJ-11-01 4.3 21:28:21 10° SSE 21:33:05 84° ENE 21:37:52 10° N
CZ-4B DEB 2.7 21:30:58 10° SSE 21:33:52 56° ENE 21:36:48 10° N
Cosmos 2221 2.8 21:29:55 10° N 21:34:12 50° E 21:38:28 10° SSE
Envisat 3.3 21:29:58 10° S 21:35:00 72° WSW 21:40:06 10° NNW
Tiangong 1 2.9 21:35:23 10° WNW 21:37:51 27° N 21:40:18 10° NE
Meteor 1-29 2.9 21:36:18 10° NNE 21:39:44 82° E 21:43:11 10° S
Cosmos 2227 Rocket 4.3 21:35:47 10° WSW 21:40:44 31° WNW 21:45:45 10° N
Cosmos 1674 2.8 21:39:03 10° S 21:42:43 52° E 21:46:23 10° NNE
Cosmos 2208 Rocket 4.3 21:39:42 10° N 21:44:59 58° ENE 21:49:33 14° SSE
SAR-Lupe-4 3.5 21:43:00 10° SSE 21:46:32 84° ENE 21:50:07 10° N
Okean 3 Rocket 3.6 21:42:06 10° S 21:46:35 85° E 21:51:06 10° N
ARGOS 4.1 21:42:44 13° SE 21:46:50 33° ENE 21:51:37 10° N
CZ-3B R/B 3.4 21:45:57 10° SW 21:48:30 74° SE 21:56:05 10° NE
SPOT 5 4.0 21:47:02 14° ESE 21:50:20 30° ENE 21:54:42 10° N
GPS 2-05 Rocket1 3.8 21:48:04 10° SSW 21:50:35 23° SSE 21:51:24 20° SE
Lacrosse 5 3.2 21:46:42 10° NNW 21:51:10 30° NE 21:55:19 11° E
SL-16 R/B 2.3 21:47:32 10° NNW 21:53:13 83° WSW 21:58:21 13° SSE
Cosmos 1908 3.3 21:49:33 10° N 21:53:24 61° E 21:56:19 16° SSE
Cosmos 1570 Rocket 4.0 21:51:33 10° NNW 21:56:53 83° ENE 22:01:16 15° SSE
Cosmos 1766 Rocket 3.7 21:54:51 12° SSE 21:58:43 52° E 22:02:56 10° NNE
Atlas Centaur 2 2.6 21:56:35 10° WSW 21:59:19 20° SSW 22:00:27 17° SSE
KORONAS-FOTON 3.8 21:56:38 13° S 21:59:55 57° E 22:03:39 10° NNE
Cosmos 1242 Rocket 2.5 22:01:05 10° N 22:04:49 80° E 22:07:16 20° SSE
OAO 1 Rocket 4.4 21:59:53 10° WSW 22:05:12 68° S 22:10:03 13° E
SAR-Lupe-1 4.5 22:03:17 14° S 22:06:18 61° WSW 22:09:52 10° NNW
USA 245 3.9 22:07:27 25° ESE 22:08:52 37° ENE 22:12:38 10° N
Helios 1B rocket 4.1 22:05:20 10° N 22:09:06 35° WNW 22:12:51 10° SW
Cosmos 1867 4.5 22:09:33 10° SW 22:14:50 52° NW 22:20:11 10° NNE
Cosmos 1743 Rocket 4.3 22:13:15 25° SE 22:14:52 34° E 22:18:46 10° NNE
H-2A R/B 4.3 22:13:53 10° E 22:15:14 12° ENE 22:16:41 10° NE
Delta 2 Rocket 4.3 22:10:30 10° SW 22:15:56 48° SSE 22:21:09 12° E
Milstar 3 Cent rocket 4.1 22:10:14 10° WSW 22:16:59 39° S 22:25:01 20° SE
USA 234 3.2 22:11:19 10° NE 22:17:51 68° SE 22:24:20 10° SW
Cosmos 2228 Rocket 3.9 22:16:10 10° N 22:20:25 36° ENE 22:22:04 27° ESE
NOAA 11 4.2 22:16:47 17° S 22:20:59 83° WSW 22:26:27 10° NNW
Cosmos 468 Rocket 4.1 22:18:21 10° N 22:23:26 62° ENE 22:26:03 28° SE
SL-08 RB Rocket 3.9 22:21:53 28° SE 22:24:07 56° ENE 22:28:37 10° N
Terra 3.3 22:24:00 18° E 22:25:39 22° ENE 22:29:16 10° NNE
ERS-1 Rocket 3.3 22:21:46 16° S 22:25:42 64° WSW 22:30:43 10° NNW
Cosmos 2227 4.4 22:21:18 10° SSW 22:27:01 76° WNW 22:32:45 10° NNE
Cosmos 1459 Rocket 4.2 22:20:48 10° N 22:27:04 73° W 22:32:18 15° S
STPSAT 2 (USA 217) 4.5 22:22:52 10° SSW 22:27:24 82° ESE 22:31:58 10° NNE
H-2A ROCKET BODY 3.2 22:27:23 10° SSW 22:30:52 28° SE 22:40:42 10° E
Cosmos 2100 Rocket 4.5 22:26:41 10° NNW 22:32:54 60° W 22:38:35 13° S
Nimbus 7 Rocket 4.4 22:27:16 10° NNE 22:33:15 65° ESE 22:37:30 20° S
Cosmos 332 Rocket 3.9 22:30:08 10° NNW 22:35:01 65° ENE 22:37:02 34° SE
MetOp-B 4.4 22:35:14 21° S 22:38:48 66° WSW 22:44:09 10° NNW
Cosmos 2061 Rocket 4.4 22:33:46 10° NNW 22:40:05 64° W 22:45:13 16° S
Cosmos 2123 Rocket 3.9 22:36:04 18° S 22:40:49 85° E 22:47:03 10° N
H-2A R/B 2.2 22:39:05 32° SSE 22:41:33 68° ENE 22:46:56 10° N
Cosmos 220 Rocket 4.0 22:39:19 19° SSW 22:42:24 88° WNW 22:46:50 10° NNE
Meteor 2-10 4.2 22:38:19 10° N 22:43:57 70° E 22:46:32 33° SSE
Cosmos 1626 3.4 22:44:38 27° ENE 22:44:38 27° ENE 22:47:20 10° NNE
Cosmos 2058 3.5 22:44:53 38° ESE 22:45:11 38° E 22:49:06 10° NNE
Cosmos 2263 Rocket 2.2 22:46:57 31° S 22:49:26 56° ESE 22:54:54 10° NNE
Cosmos 1726 2.4 22:47:29 10° NNW 22:51:07 60° W 22:52:04 43° SSW
Cosmos 1300 2.7 22:51:01 10° N 22:54:51 75° W 22:55:37 54° SSW
SL-14 R/B 3.6 22:53:30 32° SSW 22:55:10 63° W 22:59:05 10° N
RESURS DK-1 2.5 22:51:50 10° NNW 22:55:59 67° WSW 22:56:54 49° S
EO 1 Delta rocket 3.8 22:55:37 37° S 22:57:28 78° W 23:02:05 10° NNW
Cosmos 1725 Rocket 4.1 23:00:00 10° N 23:06:13 72° W 23:09:19 31° S
ERBS 2.7 23:03:23 10° NW 23:06:28 55° NNE 23:06:28 55° NNE
deb Chang Zheng 4 4.1 23:05:38 10° NNE 23:09:31 44° E 23:09:31 44° E
Cosmos 1356 3.6 23:11:38 73° NW 23:11:38 73° NW 23:14:55 10° N
Cosmos 2151 2.9 23:11:00 60° SSW 23:11:46 83° W 23:16:05 10° N
Tiangong 1 2.8 23:11:20 10° NW 23:13:24 28° N 23:13:24 28° N
Cosmos 1354 Rocket 3.9 23:16:06 54° SSE 23:17:11 71° ESE 23:22:25 10° NNE
Cosmos 1500 Rocket 4.1 23:18:02 38° SW 23:19:28 56° W 23:23:52 10° N
Cosmos 1603 4.5 23:15:09 10° NW 23:20:26 43° WSW 23:22:24 31° SSW
Cosmos 1844 Rocket 4.3 23:24:43 19° E 23:24:43 19° E 23:27:26 10° NE
DMSP B5D2-2 4.4 23:18:46 10° N 23:23:56 64° WNW 23:26:18 32° SW
Cosmos 371 Rocket 3.9 23:20:12 10° NNW 23:24:50 48° WSW 23:25:49 41° SW
CZ-4C R/B 3.2 23:28:14 29° E 23:28:14 29° E 23:31:53 10° NE
Cosmos 1455 2.9 23:24:29 10° N 23:27:33 45° NE 23:27:33 45° NE
CARTOSAT-1 3.5 23:29:27 75° SW 23:29:36 77° WSW 23:33:56 10° NNW
Cosmos 1464 Rocket 4.4 23:25:43 10° N 23:31:38 47° E 23:32:45 42° ESE
Cosmos 841 Rocket 3.5 23:27:51 10° NNW 23:33:05 70° WSW 23:33:53 59° SSW
Lacrosse 5 2.4 23:29:27 10° NW 23:34:16 44° SW 23:34:30 44° SW
Cosmos 1763 Rocket 3.9 23:29:41 10° NNW 23:34:37 50° WSW 23:35:29 45° SW
Cosmos 1943 3.3 23:30:03 10° NNW 23:35:40 68° WSW 23:36:46 55° SSW
SL-19 R/B 4.2 23:30:47 10° NNE 23:36:11 84° WNW 23:37:45 49° SSW
Cosmos 1805 Rocket 3.8 23:39:13 58° NE 23:39:13 58° NE 23:42:56 10° NNE
Abrixas rocket 4.1 23:36:55 10° NW 23:38:41 29° NW 23:38:41 29° NW
Cosmos 1633 Rocket 4.2 23:44:55 32° ENE 23:44:55 32° ENE 23:47:50 10° NNE
CZ-4C R/B 4.1 23:46:43 48° NE 23:46:43 48° NE 23:50:28 10° N
IGS 5A 4.2 23:48:25 46° W 23:48:25 46° W 23:52:14 10° NNW
Cosmos 1151 Rocket 4.2 23:46:15 10° NNW 23:50:13 34° W 23:50:35 33° WSW
H-2A R/B 2.4 23:51:01 57° W 23:51:01 57° W 23:54:58 10° NNW
SME Rocket 3.6 23:52:50 51° NNE 23:52:50 51° NNE 23:56:33 10° N
